Location: The Stocker AstroScience Center
(25.7579°N, 80.3725°W)
Time: 23:20:21
(UTC-04:00)

ISS - All Passes

Search period start: 30 July 2014 00:00
Search period end: 09 August 2014 00:00
Orbit: 411 x 419 km, 51.6° (Epoch: 31 July)

Date Brightness Start Highest point End Pass type
(mag) Time Alt. Az. Time Alt. Az. Time Alt. Az.
30 Jul - 07:49:39 10° NW 07:52:57 58° SW 07:56:14 10° SSE daylight
30 Jul - 21:15:18 10° SE 21:16:13 11° SE 21:17:08 10° ESE night (unlit)
30 Jul - 22:49:31 10° WSW 22:52:36 36° NW 22:55:42 10° NNE night (unlit)
31 Jul - 07:00:50 10° NNW 07:04:09 60° NE 07:07:27 10° SE daylight
31 Jul - 22:00:28 10° SW 22:03:46 81° NW 22:07:06 10° NE visible
01 Aug - 06:12:20 10° NNW 06:15:17 28° NE 06:18:14 10° ESE visible
01 Aug - 07:49:51 10° W 07:51:46 15° SW 07:53:41 10° SSW daylight
01 Aug - 21:11:51 10° SSW 21:14:59 42° SE 21:18:09 10° NE visible
01 Aug - 22:50:32 10° WNW 22:51:50 12° NW 22:53:08 10° NNW visible
02 Aug - 05:24:15 10° N 05:26:20 15° NE 05:28:25 10° E visible
02 Aug - 07:00:05 10° WNW 07:03:03 30° SW 07:06:01 10° S daylight
02 Aug - 20:23:47 10° S 20:26:15 20° SE 20:28:44 10° ENE daylight
02 Aug - 22:00:14 10° W 22:02:50 21° NW 22:05:27 10° N visible
03 Aug - 06:10:57 10° NW 06:14:17 69° SW 06:17:36 10° SSE visible
03 Aug - 21:10:46 10° WSW 21:13:54 41° NW 21:17:05 10° NNE visible
04 Aug - 05:22:10 10° NNW 05:25:27 50° NE 05:28:42 10° SE visible
04 Aug - 20:21:45 10° SW 20:25:03 85° SE 20:28:22 10° NE visible
05 Aug - 04:33:42 10° NNW 04:36:32 25° NE 04:39:21 10° E visible
05 Aug - 06:10:49 10° W 06:13:03 17° SW 06:15:17 10° SSW visible
05 Aug - 19:33:12 10° SSW 19:36:15 35° SE 19:39:19 10° ENE daylight
05 Aug - 21:11:21 10° WNW 21:13:02 13° NW 21:14:43 10° N visible
06 Aug - 03:45:44 10° N 03:47:31 14° NE 03:49:19 10° ENE night (unlit)
06 Aug - 05:21:13 10° WNW 05:24:18 35° SW 05:27:23 10° SSE visible
06 Aug - 18:45:17 10° SSE 18:47:30 17° SE 18:49:43 10° E daylight
06 Aug - 20:21:16 10° W 20:24:01 24° NW 20:26:47 10° NNE visible
07 Aug - 04:32:08 10° NW 04:35:29 83° SW 04:38:49 10° SE night (unlit)
07 Aug - 19:31:52 10° WSW 19:35:05 49° NW 19:38:18 10° NNE daylight
08 Aug - 03:43:23 10° NNW 03:46:36 43° NE 03:49:48 10° ESE night (unlit)
08 Aug - 18:42:56 10° SW 18:46:12 71° SE 18:49:30 10° NE daylight
